Location: Unspecified
(0.0000°N, 0.0000°E)
Time: 10:28:20
(UTC+00:00)

Altair - Pass Details

Date: 05 October 2023
Orbit: 1501 x 1682 km, 47.2° (Epoch: 06 December)

Event Time Altitude Azimuth Distance (km) Brightness Sun altitude
Rises 11:20:47 0° 292° (WNW) 4,913 10.1 81.6°
Reaches altitude 10° 11:24:44 10° 280° (W) 3,910 9.7 82.4°
Maximum altitude 11:32:29 25° 229° (SW) 2,836 9.3 83.8°
Drops below altitude 10° 11:40:06 10° 177° (S) 3,816 9.8 84.8°
Sets 11:43:57 0° 164° (SSE) 4,772 10.2 85.1°
